Location: Stara Lesna
(49.1528°N, 20.2911°E)
Time: 19:01:08
(UTC+02:00)

Okean 1 - Pass Details

Date: 13 July 2020
Orbit: 538 x 555 km, 82.5° (Epoch: 10 August)

Event Time Altitude Azimuth Distance (km) Brightness Sun altitude
Rises 02:21:47 0° 344° (NNW) 2,708 7.7 -15.8°
Reaches altitude 10° 02:24:01 10° 337° (NNW) 1,812 6.6 -15.7°
Maximum altitude 02:27:46 41° 267° (W) 789 3.9 -15.4°
Enters shadow 02:29:15 29° 218° (SW) 1,019 4.1 -15.3°
